Regional Weather Roundup
Issued by NWS

Home | Current Version | Previous Version | Graphics & Text | Print | Product List | Glossary On
Versions: 1 2 3 4 5 6 7 8 9 10 11 12 13 14 15 16 17 18 19 20 21 22 23 24 25 26 27 28 29 30 31 32 33 34 35 36 37 38 39 40 41 42 43 44 45 46 47 48 49 50
000
ASUS43 KFSD 030902
RWRSD

WEATHER ROUNDUP FOR SOUTH DAKOTA
NATIONAL WEATHER SERVICE SIOUX FALLS SD
400 AM CDT TUE MAY 03 2016

NOTE: "FAIR" INDICATES FEW OR NO CLOUDS BELOW 12,000 FEET WITH NO
SIGNIFICANT WEATHER AND/OR OBSTRUCTIONS TO VISIBILITY.


SDZ001>005-009-010-012>017-031000-
NORTHWEST AND NORTH CENTRAL SOUTH DAKOTA

CITY           SKY/WX    TMP DP  RH WIND       PRES   REMARKS
BUFFALO          N/A     43  32  65 W6        29.99F
FAITH            N/A     42  38  85 W7        30.04S
MOBRIDGE       CLOUDY    39  38  96 CALM      29.99S
$$

SDZ012>016-024>037-041>051-057-063-072>074-031000-
SOUTHWEST AND SOUTH CENTRAL SOUTH DAKOTA

CITY           SKY/WX    TMP DP  RH WIND       PRES   REMARKS
RAPID CTY ARPT CLEAR     42  35  76 NW10      30.06S
PIERRE         CLOUDY    40  37  89 W3        30.02F
CUSTER         CLEAR     36  27  69 VRB6      30.11F
ELLSWORTH AFB  CLEAR     37  35  92 W6        30.06S
PHILIP         FOG       34  34 100 W5        30.05S VSB 1/4 WCI  30
PINE RIDGE     MOCLDY    32  29  88 E5        30.07S WCI  27
WINNER         FAIR      43  37  79 SW6       30.05R
$$

SDZ004>011-016>023-039-040-031000-
NORTHEAST SOUTH DAKOTA

CITY           SKY/WX    TMP DP  RH WIND       PRES   REMARKS
ABERDEEN       CLOUDY    37  34  89 SW5       30.01S
WATERTOWN      CLEAR     40  36  86 CALM      30.00S
BROOKINGS      CLEAR     42  39  89 SE3       30.01S
SISSETON         N/A     43  37  79 NW3       29.97F
$$

SDZ017-020-022-023-036>040-048>070-031000-
SOUTHEAST SOUTH DAKOTA

CITY           SKY/WX    TMP DP  RH WIND       PRES   REMARKS
SIOUX FALLS    CLEAR     36  35  96 CALM      30.02S
HURON          CLEAR     41  39  93 CALM      30.02S
MITCHELL       CLEAR     45  44  97 CALM      30.03S
YANKTON        CLEAR     41  36  81 NW7       30.02R
$$

ABBREVIATIONS USED IN REMARKS
   TC - TEMPERATURE IN CELSIUS
  WCI - WIND CHILL INDEX
   HX - HEAT INDEX
  VSB - VISIBILITY




USA.gov is the U.S. government's official web portal to all federal, state and local government web resources and services.